Year,Month,Day,Hour,Minute,Value (Times are PST for temperature in C)
2010,05,08,00,00,8.40
2010,05,08,00,01,8.40
2010,05,08,00,06,8.40
2010,05,08,00,07,8.30
2010,05,08,00,08,8.30
2010,05,08,00,09,8.30
2010,05,08,00,10,8.30
2010,05,08,00,11,8.30
2010,05,08,00,12,8.30
2010,05,08,00,13,8.30
2010,05,08,00,14,8.30
2010,05,08,00,15,8.30
2010,05,08,00,16,8.30
2010,05,08,00,17,8.20
2010,05,08,00,18,8.20
2010,05,08,00,19,8.20
2010,05,08,00,20,8.20
2010,05,08,00,21,8.20
2010,05,08,00,22,8.20
2010,05,08,00,23,8.10
2010,05,08,00,24,8.10
2010,05,08,00,25,8.10
2010,05,08,00,26,8.10
2010,05,08,00,27,8.10
2010,05,08,00,28,8.10
2010,05,08,00,29,8.10
2010,05,08,00,30,8.10
2010,05,08,00,31,8.10
2010,05,08,00,32,8.10
2010,05,08,00,33,8.00
2010,05,08,00,34,8.00
2010,05,08,00,35,8.00
2010,05,08,00,36,7.90
2010,05,08,00,37,7.90
2010,05,08,00,38,7.90
2010,05,08,00,39,7.90
2010,05,08,00,40,7.90
2010,05,08,00,41,7.90
2010,05,08,00,42,7.90
2010,05,08,00,43,7.90
2010,05,08,00,44,7.90
2010,05,08,00,45,7.90
2010,05,08,00,46,7.90
2010,05,08,00,47,7.90
2010,05,08,00,48,7.90
2010,05,08,00,49,7.80
2010,05,08,00,50,7.80
2010,05,08,00,51,7.80
2010,05,08,00,52,7.80
2010,05,08,00,53,7.80
2010,05,08,00,54,7.80
2010,05,08,00,55,7.70
2010,05,08,00,56,7.70
2010,05,08,00,57,7.70
2010,05,08,00,58,7.70
2010,05,08,00,59,7.70
2010,05,08,01,00,7.70
2010,05,08,01,01,7.70
2010,05,08,01,02,7.70
2010,05,08,01,03,7.70
2010,05,08,01,04,7.60
2010,05,08,01,05,7.60
2010,05,08,01,06,7.60
2010,05,08,01,07,7.50
2010,05,08,01,08,7.50
2010,05,08,01,09,7.50
2010,05,08,01,10,7.40
2010,05,08,01,11,7.40
2010,05,08,01,12,7.40
2010,05,08,01,13,7.40
2010,05,08,01,14,7.40
2010,05,08,01,15,7.30
2010,05,08,01,16,7.30
2010,05,08,01,17,7.30
2010,05,08,01,18,7.20
2010,05,08,01,19,7.20
2010,05,08,01,20,7.20
2010,05,08,01,21,7.20
2010,05,08,01,22,7.10
2010,05,08,01,23,7.10
2010,05,08,01,24,7.10
2010,05,08,01,25,7.10
2010,05,08,01,26,7.00
2010,05,08,01,27,7.00
2010,05,08,01,28,6.90
2010,05,08,01,29,6.90
2010,05,08,01,30,6.90
2010,05,08,01,31,6.90
2010,05,08,01,32,6.90
2010,05,08,01,33,6.90
2010,05,08,01,34,6.80
2010,05,08,01,35,6.80
2010,05,08,01,36,6.80
2010,05,08,01,37,6.80
2010,05,08,01,38,6.80
2010,05,08,01,39,6.80
2010,05,08,01,40,6.80
2010,05,08,01,41,6.80
2010,05,08,01,42,6.80
2010,05,08,01,43,6.80
2010,05,08,01,44,6.80
2010,05,08,01,45,6.80
2010,05,08,01,46,6.80
2010,05,08,01,47,6.80
2010,05,08,01,48,6.70
2010,05,08,01,49,6.70
2010,05,08,01,50,6.70
2010,05,08,01,51,6.70
2010,05,08,01,52,6.70
2010,05,08,01,53,6.70
2010,05,08,01,54,6.60
2010,05,08,01,55,6.60
2010,05,08,01,56,6.60
2010,05,08,01,57,6.50
2010,05,08,01,58,6.50
2010,05,08,01,59,6.40
2010,05,08,02,00,6.40
2010,05,08,02,01,6.30
2010,05,08,02,02,6.30
2010,05,08,02,03,6.30
2010,05,08,02,04,6.30
2010,05,08,02,05,6.20
2010,05,08,02,06,6.20
2010,05,08,02,07,6.20
2010,05,08,02,08,6.20
2010,05,08,02,09,6.20
2010,05,08,02,10,6.20
2010,05,08,02,11,6.20
2010,05,08,02,12,6.10
2010,05,08,02,13,6.10
2010,05,08,02,14,6.10
2010,05,08,02,15,6.10
2010,05,08,02,16,6.10
2010,05,08,02,17,6.00
2010,05,08,02,18,6.00
2010,05,08,02,19,6.00
2010,05,08,02,20,6.00
2010,05,08,02,21,6.00
2010,05,08,02,22,5.90
2010,05,08,02,23,5.90
2010,05,08,02,24,5.90
2010,05,08,02,25,5.90
2010,05,08,02,26,5.90
2010,05,08,02,27,5.80
2010,05,08,02,28,5.80
2010,05,08,02,29,5.80
2010,05,08,02,30,5.80
2010,05,08,02,31,5.80
2010,05,08,02,32,5.80
2010,05,08,02,33,5.70
2010,05,08,02,34,5.70
2010,05,08,02,35,5.70
2010,05,08,02,36,5.70
2010,05,08,02,37,5.70
2010,05,08,02,38,5.70
2010,05,08,02,39,5.70
2010,05,08,02,40,5.70
2010,05,08,02,41,5.70
2010,05,08,02,42,5.60
2010,05,08,02,43,5.60
2010,05,08,02,44,5.60
2010,05,08,02,45,5.60
2010,05,08,02,46,5.50
2010,05,08,02,47,5.50
2010,05,08,02,48,5.50
2010,05,08,02,49,5.40
2010,05,08,02,50,5.40
2010,05,08,02,51,5.40
2010,05,08,02,52,5.40
2010,05,08,02,53,5.40
2010,05,08,02,54,5.40
2010,05,08,02,55,5.30
2010,05,08,02,56,5.30
2010,05,08,02,57,5.30
2010,05,08,02,58,5.30
2010,05,08,02,59,5.30
2010,05,08,03,00,5.30
2010,05,08,03,01,5.30
2010,05,08,03,02,5.30
2010,05,08,03,03,5.20
2010,05,08,03,04,5.20
2010,05,08,03,05,5.20
2010,05,08,03,06,5.20
2010,05,08,03,07,5.20
2010,05,08,03,08,5.20
2010,05,08,03,09,5.20
2010,05,08,03,10,5.10
2010,05,08,03,11,5.10
2010,05,08,03,12,5.10
2010,05,08,03,13,5.10
2010,05,08,03,14,5.10
2010,05,08,03,15,5.10
2010,05,08,03,16,5.10
2010,05,08,03,17,5.10
2010,05,08,03,18,5.10
2010,05,08,03,19,5.10
2010,05,08,03,20,5.00
2010,05,08,03,21,5.00
2010,05,08,03,22,5.00
2010,05,08,03,23,5.00
2010,05,08,03,24,5.00
2010,05,08,03,25,5.00
2010,05,08,03,26,5.00
2010,05,08,03,27,5.00
2010,05,08,03,28,5.00
2010,05,08,03,29,5.00
2010,05,08,03,30,5.00
2010,05,08,03,31,5.00
2010,05,08,03,32,5.00
2010,05,08,03,33,5.00
2010,05,08,03,34,5.00
2010,05,08,03,35,5.00
2010,05,08,03,36,5.00
2010,05,08,03,37,5.00
2010,05,08,03,38,5.00
2010,05,08,03,39,5.00
2010,05,08,03,40,5.00
2010,05,08,03,41,5.00
2010,05,08,03,42,5.00
2010,05,08,03,43,5.00
2010,05,08,03,44,5.00
2010,05,08,03,45,4.90
2010,05,08,03,46,4.90
2010,05,08,03,47,4.90
2010,05,08,03,48,4.90
2010,05,08,03,49,4.90
2010,05,08,03,50,4.90
2010,05,08,03,51,4.90
2010,05,08,03,52,4.90
2010,05,08,03,53,4.90
2010,05,08,03,54,4.90
2010,05,08,03,55,4.90
2010,05,08,03,56,4.90
2010,05,08,03,57,4.80
2010,05,08,03,58,4.80
2010,05,08,03,59,4.80
2010,05,08,04,00,4.80
2010,05,08,04,01,4.80
2010,05,08,04,02,4.80
2010,05,08,04,03,4.80
2010,05,08,04,04,4.80
2010,05,08,04,05,4.80
2010,05,08,04,06,4.80
2010,05,08,04,07,4.80
2010,05,08,04,08,4.80
2010,05,08,04,09,4.80
2010,05,08,04,10,4.70
2010,05,08,04,11,4.70
2010,05,08,04,12,4.70
2010,05,08,04,13,4.70
2010,05,08,04,14,4.80
2010,05,08,04,15,4.80
2010,05,08,04,16,4.80
2010,05,08,04,17,4.80
2010,05,08,04,18,4.80
2010,05,08,04,19,4.80
2010,05,08,04,20,4.80
2010,05,08,04,21,4.80
2010,05,08,04,22,4.80
2010,05,08,04,23,4.80
2010,05,08,04,24,4.80
2010,05,08,04,25,4.80
2010,05,08,04,26,4.80
2010,05,08,04,27,4.80
2010,05,08,04,28,4.80
2010,05,08,04,29,4.80
2010,05,08,04,30,4.80
2010,05,08,04,31,4.80
2010,05,08,04,32,4.80
2010,05,08,04,33,4.80
2010,05,08,04,34,4.80
2010,05,08,04,35,4.80
2010,05,08,04,36,4.80
2010,05,08,04,37,4.90
2010,05,08,04,38,4.90
2010,05,08,04,39,4.90
2010,05,08,04,40,4.90
2010,05,08,04,41,4.90
2010,05,08,04,42,4.80
2010,05,08,04,43,4.80
2010,05,08,04,44,4.80
2010,05,08,04,45,4.80
2010,05,08,04,46,4.80
2010,05,08,04,47,4.80
2010,05,08,04,48,4.80
2010,05,08,04,49,4.80
2010,05,08,04,50,4.80
2010,05,08,04,51,4.80
2010,05,08,04,52,4.80
2010,05,08,04,53,4.70
2010,05,08,04,54,4.70
2010,05,08,04,55,4.70
2010,05,08,04,56,4.70
2010,05,08,04,57,4.70
2010,05,08,04,58,4.70
2010,05,08,04,59,4.70
2010,05,08,05,00,4.60
2010,05,08,05,01,4.60
2010,05,08,05,02,4.60
2010,05,08,05,03,4.60
2010,05,08,05,04,4.60
2010,05,08,05,05,4.60
2010,05,08,05,06,4.50
2010,05,08,05,07,4.50
2010,05,08,05,08,4.50
2010,05,08,05,09,4.50
2010,05,08,05,10,4.50
2010,05,08,05,11,4.50
2010,05,08,05,12,4.40
2010,05,08,05,13,4.40
2010,05,08,05,14,4.40
2010,05,08,05,15,4.40
2010,05,08,05,16,4.40
2010,05,08,05,17,4.40
2010,05,08,05,18,4.40
2010,05,08,05,19,4.40
2010,05,08,05,20,4.40
2010,05,08,05,21,4.40
2010,05,08,05,22,4.40
2010,05,08,05,23,4.50
2010,05,08,05,24,4.40
2010,05,08,05,25,4.50
2010,05,08,05,26,4.50
2010,05,08,05,27,4.50
2010,05,08,05,28,4.50
2010,05,08,05,29,4.50
2010,05,08,05,30,4.50
2010,05,08,05,31,4.50
2010,05,08,05,32,4.60
2010,05,08,05,33,4.60
2010,05,08,05,34,4.60
2010,05,08,05,35,4.60
2010,05,08,05,36,4.60
2010,05,08,05,37,4.60
2010,05,08,05,38,4.60
2010,05,08,05,39,4.60
2010,05,08,05,40,4.60
2010,05,08,05,41,4.60
2010,05,08,05,42,4.60
2010,05,08,05,43,4.60
2010,05,08,05,44,4.60
2010,05,08,05,45,4.60
2010,05,08,05,46,4.60
2010,05,08,05,47,4.60
2010,05,08,05,48,4.60
2010,05,08,05,49,4.60
2010,05,08,05,50,4.60
2010,05,08,05,51,4.50
2010,05,08,05,52,4.50
2010,05,08,05,53,4.50
2010,05,08,05,54,4.50
2010,05,08,05,55,4.50
2010,05,08,05,56,4.50
2010,05,08,05,57,4.50
2010,05,08,05,58,4.50
2010,05,08,05,59,4.50
2010,05,08,06,00,4.40
2010,05,08,06,01,4.40
2010,05,08,06,02,4.40
2010,05,08,06,03,4.40
2010,05,08,06,04,4.40
2010,05,08,06,05,4.40
2010,05,08,06,06,4.40
2010,05,08,06,07,4.40
2010,05,08,06,08,4.40
2010,05,08,06,09,4.40
2010,05,08,06,10,4.40
2010,05,08,06,11,4.40
2010,05,08,06,12,4.40
2010,05,08,06,13,4.50
2010,05,08,06,14,4.50
2010,05,08,06,15,4.50
2010,05,08,06,16,4.50
2010,05,08,06,17,4.50
2010,05,08,06,18,4.50
2010,05,08,06,19,4.60
2010,05,08,06,20,4.60
2010,05,08,06,21,4.60
2010,05,08,06,22,4.60
2010,05,08,06,23,4.60
2010,05,08,06,24,4.70
2010,05,08,06,25,4.70
2010,05,08,06,26,4.70
2010,05,08,06,27,4.70
2010,05,08,06,28,4.70
2010,05,08,06,29,4.70
2010,05,08,06,30,4.80
2010,05,08,06,31,4.80
2010,05,08,06,32,4.80
2010,05,08,06,33,4.80
2010,05,08,06,34,4.80
2010,05,08,06,35,4.80
2010,05,08,06,36,4.80
2010,05,08,06,37,4.90
2010,05,08,06,38,4.90
2010,05,08,06,39,4.90
2010,05,08,06,40,4.90
2010,05,08,06,41,4.90
2010,05,08,06,42,4.90
2010,05,08,06,43,5.00
2010,05,08,06,44,5.00
2010,05,08,06,45,5.00
2010,05,08,06,46,5.10
2010,05,08,06,47,5.10
2010,05,08,06,48,5.10
2010,05,08,06,49,5.10
2010,05,08,06,50,5.10
2010,05,08,06,51,5.10
2010,05,08,06,52,5.20
2010,05,08,06,53,5.20
2010,05,08,06,54,5.20
2010,05,08,06,55,5.20
2010,05,08,06,56,5.30
2010,05,08,06,57,5.30
2010,05,08,06,58,5.30
2010,05,08,06,59,5.30
2010,05,08,07,00,5.30
2010,05,08,07,01,5.30
2010,05,08,07,02,5.40
2010,05,08,07,03,5.40
2010,05,08,07,04,5.40
2010,05,08,07,05,5.40
2010,05,08,07,06,5.50
2010,05,08,07,07,5.50
2010,05,08,07,08,5.60
2010,05,08,07,09,5.60
2010,05,08,07,10,5.60
2010,05,08,07,11,5.70
2010,05,08,07,12,5.70
2010,05,08,07,13,5.70
2010,05,08,07,14,5.70
2010,05,08,07,15,5.80
2010,05,08,07,16,5.80
2010,05,08,07,17,5.80
2010,05,08,07,18,5.90
2010,05,08,07,19,5.90
2010,05,08,07,20,6.00
2010,05,08,07,21,6.00
2010,05,08,07,22,6.10
2010,05,08,07,23,6.20
2010,05,08,07,24,6.30
2010,05,08,07,25,6.30
2010,05,08,07,26,6.40
2010,05,08,07,27,6.50
2010,05,08,07,28,6.60
2010,05,08,07,29,6.70
2010,05,08,07,30,6.70
2010,05,08,07,31,6.80
2010,05,08,07,32,6.90
2010,05,08,07,33,6.90
2010,05,08,07,34,7.00
2010,05,08,07,35,7.10
2010,05,08,07,36,7.10
2010,05,08,07,37,7.20
2010,05,08,07,38,7.20
2010,05,08,07,39,7.30
2010,05,08,07,40,7.30
2010,05,08,07,41,7.40
2010,05,08,07,42,7.40
2010,05,08,07,43,7.40
2010,05,08,07,44,7.50
2010,05,08,07,45,7.50
2010,05,08,07,46,7.60
2010,05,08,07,47,7.60
2010,05,08,07,48,7.60
2010,05,08,07,49,7.70
2010,05,08,07,50,7.70
2010,05,08,07,51,7.80
2010,05,08,07,52,7.80
2010,05,08,07,53,7.80
2010,05,08,07,54,7.90
2010,05,08,07,55,8.00
2010,05,08,07,56,8.00
2010,05,08,07,57,8.10
2010,05,08,07,58,8.10
2010,05,08,07,59,8.20
2010,05,08,08,00,8.30
2010,05,08,08,01,8.50
2010,05,08,08,02,8.70
2010,05,08,08,03,8.90
2010,05,08,08,04,9.00
2010,05,08,08,05,9.20
2010,05,08,08,06,9.30
2010,05,08,08,07,9.50
2010,05,08,08,08,9.60
2010,05,08,08,09,9.70
2010,05,08,08,10,9.80
2010,05,08,08,11,9.90
2010,05,08,08,12,10.00
2010,05,08,08,13,10.00
2010,05,08,08,14,10.10
2010,05,08,08,15,10.20
2010,05,08,08,16,10.20
2010,05,08,08,17,10.30
2010,05,08,08,18,10.30
2010,05,08,08,19,10.40
2010,05,08,08,20,10.40
2010,05,08,08,21,10.50
2010,05,08,08,22,10.50
2010,05,08,08,23,10.60
2010,05,08,08,24,10.60
2010,05,08,08,25,10.60
2010,05,08,08,26,10.70
2010,05,08,08,27,10.70
2010,05,08,08,28,10.80
2010,05,08,08,29,10.80
2010,05,08,08,30,10.80
2010,05,08,08,31,10.90
2010,05,08,08,32,10.90
2010,05,08,08,33,10.90
2010,05,08,08,34,10.90
2010,05,08,08,35,10.90
2010,05,08,08,36,11.00
2010,05,08,08,37,11.00
2010,05,08,08,38,11.10
2010,05,08,08,39,11.10
2010,05,08,08,40,11.10
2010,05,08,08,41,11.10
2010,05,08,08,42,11.10
2010,05,08,08,43,11.20
2010,05,08,08,44,11.20
2010,05,08,08,45,11.20
2010,05,08,08,46,11.20
2010,05,08,08,47,11.20
2010,05,08,08,48,11.20
2010,05,08,08,49,11.20
2010,05,08,08,50,11.30
2010,05,08,08,51,11.30
2010,05,08,08,52,11.30
2010,05,08,08,53,11.30
2010,05,08,08,54,11.30
2010,05,08,08,55,11.30
2010,05,08,08,56,11.30
2010,05,08,08,57,11.30
2010,05,08,08,58,11.30
2010,05,08,08,59,11.30
2010,05,08,09,00,11.30
2010,05,08,09,01,11.30
2010,05,08,09,02,11.30
2010,05,08,09,03,11.40
2010,05,08,09,04,11.40
2010,05,08,09,05,11.40
2010,05,08,09,06,11.50
2010,05,08,09,07,11.50
2010,05,08,09,08,11.50
2010,05,08,09,09,11.50
2010,05,08,09,10,11.50
2010,05,08,09,11,11.40
2010,05,08,09,12,11.40
2010,05,08,09,13,11.40
2010,05,08,09,14,11.40
2010,05,08,09,15,11.40
2010,05,08,09,16,11.40
2010,05,08,09,17,11.40
2010,05,08,09,18,11.50
2010,05,08,09,19,11.50
2010,05,08,09,20,11.50
2010,05,08,09,21,11.50
2010,05,08,09,22,11.50
2010,05,08,09,23,11.40
2010,05,08,09,24,11.40
2010,05,08,09,25,11.40
2010,05,08,09,26,11.40
2010,05,08,09,27,11.50
2010,05,08,09,28,11.50
2010,05,08,09,29,11.50
2010,05,08,09,30,11.60
2010,05,08,09,31,11.60
2010,05,08,09,32,11.60
2010,05,08,09,33,11.70
2010,05,08,09,34,11.70
2010,05,08,09,35,11.70
2010,05,08,09,36,11.70
2010,05,08,09,37,11.70
2010,05,08,09,38,11.70
2010,05,08,09,39,11.70
2010,05,08,09,40,11.70
2010,05,08,09,41,11.70
2010,05,08,09,42,11.70
2010,05,08,09,43,11.70
2010,05,08,09,44,11.80
2010,05,08,09,45,11.80
2010,05,08,09,46,11.80
2010,05,08,09,47,11.90
2010,05,08,09,48,11.90
2010,05,08,09,49,11.90
2010,05,08,09,50,11.90
2010,05,08,09,51,11.90
2010,05,08,09,52,11.80
2010,05,08,09,53,11.90
2010,05,08,09,54,11.90
2010,05,08,09,55,11.80
2010,05,08,09,56,11.80
2010,05,08,09,57,11.80
2010,05,08,09,58,11.90
2010,05,08,09,59,11.90
2010,05,08,10,00,11.90
2010,05,08,10,01,11.90
2010,05,08,10,02,11.90
2010,05,08,10,03,11.90
2010,05,08,10,04,11.90
2010,05,08,10,05,12.00
2010,05,08,10,06,12.00
2010,05,08,10,07,12.10
2010,05,08,10,08,12.10
2010,05,08,10,09,12.10
2010,05,08,10,10,12.10
2010,05,08,10,11,12.10
2010,05,08,10,12,12.10
2010,05,08,10,13,12.10
2010,05,08,10,14,12.20
2010,05,08,10,15,12.20
2010,05,08,10,16,12.30
2010,05,08,10,17,12.30
2010,05,08,10,18,12.30
2010,05,08,10,19,12.30
2010,05,08,10,20,12.40
2010,05,08,10,21,12.50
2010,05,08,10,22,12.50
2010,05,08,10,23,12.60
2010,05,08,10,24,12.60
2010,05,08,10,25,12.60
2010,05,08,10,26,12.60
2010,05,08,10,27,12.70
2010,05,08,10,28,12.70
2010,05,08,10,29,12.70
2010,05,08,10,30,12.70
2010,05,08,10,31,12.80
2010,05,08,10,32,12.80
2010,05,08,10,33,12.90
2010,05,08,10,34,12.90
2010,05,08,10,35,13.00
2010,05,08,10,36,13.00
2010,05,08,10,37,13.10
2010,05,08,10,38,13.10
2010,05,08,10,39,13.10
2010,05,08,10,40,13.10
2010,05,08,10,41,13.10
2010,05,08,10,42,13.10
2010,05,08,10,43,13.10
2010,05,08,10,44,13.10
2010,05,08,10,45,13.10
2010,05,08,10,46,13.10
2010,05,08,10,47,13.20
2010,05,08,10,48,13.20
2010,05,08,10,49,13.30
2010,05,08,10,50,13.30
2010,05,08,10,51,13.30
2010,05,08,10,52,13.30
2010,05,08,10,53,13.30
2010,05,08,10,54,13.40
2010,05,08,10,55,13.40
2010,05,08,10,56,13.30
2010,05,08,10,57,13.30
2010,05,08,10,58,13.30
2010,05,08,10,59,13.30
2010,05,08,11,00,13.30
2010,05,08,11,01,13.30
2010,05,08,11,02,13.30
2010,05,08,11,03,13.30
2010,05,08,11,04,13.30
2010,05,08,11,05,13.30
2010,05,08,11,06,13.30
2010,05,08,11,07,13.40
2010,05,08,11,08,13.40
2010,05,08,11,09,13.40
2010,05,08,11,10,13.50
2010,05,08,11,11,13.60
2010,05,08,11,12,13.60
2010,05,08,11,13,13.60
2010,05,08,11,14,13.60
2010,05,08,11,15,13.60
2010,05,08,11,16,13.60
2010,05,08,11,17,13.60
2010,05,08,11,18,13.60
2010,05,08,11,19,13.60
2010,05,08,11,20,13.70
2010,05,08,11,21,13.70
2010,05,08,11,22,13.60
2010,05,08,11,23,13.60
2010,05,08,11,24,13.50
2010,05,08,11,25,13.50
2010,05,08,11,26,13.50
2010,05,08,11,27,13.50
2010,05,08,11,28,13.50
2010,05,08,11,29,13.60
2010,05,08,11,30,13.60
2010,05,08,11,31,13.70
2010,05,08,11,32,13.70
2010,05,08,11,33,13.70
2010,05,08,11,34,13.80
2010,05,08,11,35,13.90
2010,05,08,11,36,14.00
2010,05,08,11,37,14.00
2010,05,08,11,38,14.10
2010,05,08,11,39,14.10
2010,05,08,11,40,14.10
2010,05,08,11,41,14.10
2010,05,08,11,42,14.10
2010,05,08,11,43,14.10
2010,05,08,11,44,14.20
2010,05,08,11,45,14.20
2010,05,08,11,46,14.20
2010,05,08,11,47,14.10
2010,05,08,11,48,14.10
2010,05,08,11,49,14.10
2010,05,08,11,50,14.00
2010,05,08,11,51,14.00
2010,05,08,11,52,13.90
2010,05,08,11,53,14.00
2010,05,08,11,54,14.00
2010,05,08,11,55,14.10
2010,05,08,11,56,14.30
2010,05,08,11,57,14.30
2010,05,08,11,58,14.40
2010,05,08,11,59,14.40
2010,05,08,12,00,14.50
2010,05,08,12,01,14.40
2010,05,08,12,02,14.40
2010,05,08,12,03,14.30
2010,05,08,12,04,14.20
2010,05,08,12,05,14.20
2010,05,08,12,06,14.20
2010,05,08,12,07,14.30
2010,05,08,12,08,14.40
2010,05,08,12,09,14.50
2010,05,08,12,10,14.60
2010,05,08,12,11,14.60
2010,05,08,12,12,14.70
2010,05,08,12,13,14.70
2010,05,08,12,14,14.80
2010,05,08,12,15,14.90
2010,05,08,12,16,14.90
2010,05,08,12,17,15.00
2010,05,08,12,18,15.10
2010,05,08,12,19,15.20
2010,05,08,12,20,15.30
2010,05,08,12,21,15.40
2010,05,08,12,22,15.50
2010,05,08,12,23,15.40
2010,05,08,12,24,15.30
2010,05,08,12,25,15.30
2010,05,08,12,26,15.20
2010,05,08,12,27,15.20
2010,05,08,12,28,15.20
2010,05,08,12,29,15.20
2010,05,08,12,30,15.20
2010,05,08,12,31,15.20
2010,05,08,12,32,15.20
2010,05,08,12,33,15.20
2010,05,08,12,34,15.20
2010,05,08,12,35,15.20
2010,05,08,12,36,15.30
2010,05,08,12,37,15.30
2010,05,08,12,38,15.30
2010,05,08,12,39,15.30
2010,05,08,12,40,15.20
2010,05,08,12,41,15.20
2010,05,08,12,42,15.10
2010,05,08,12,43,15.00
2010,05,08,12,44,15.00
2010,05,08,12,45,15.00
2010,05,08,12,46,15.10
2010,05,08,12,47,15.20
2010,05,08,12,48,15.30
2010,05,08,12,49,15.40
2010,05,08,12,50,15.40
2010,05,08,12,51,15.40
2010,05,08,12,52,15.40
2010,05,08,12,53,15.40
2010,05,08,12,54,15.50
2010,05,08,12,55,15.50
2010,05,08,12,56,15.50
2010,05,08,12,57,15.40
2010,05,08,12,58,15.40
2010,05,08,12,59,15.40
2010,05,08,13,00,15.30
2010,05,08,13,01,15.30
2010,05,08,13,02,15.30
2010,05,08,13,03,15.20
2010,05,08,13,04,15.10
2010,05,08,13,05,15.20
2010,05,08,13,06,15.20
2010,05,08,13,07,15.20
2010,05,08,13,08,15.30
2010,05,08,13,09,15.40
2010,05,08,13,10,15.50
2010,05,08,13,11,15.60
2010,05,08,13,12,15.70
2010,05,08,13,13,15.70
2010,05,08,13,14,15.90
2010,05,08,13,15,16.00
2010,05,08,13,16,16.10
2010,05,08,13,17,16.30
2010,05,08,13,18,16.40
2010,05,08,13,19,16.40
2010,05,08,13,20,16.40
2010,05,08,13,21,16.30
2010,05,08,13,22,16.40
2010,05,08,13,23,16.40
2010,05,08,13,24,16.40
2010,05,08,13,25,16.40
2010,05,08,13,26,16.40
2010,05,08,13,27,16.40
2010,05,08,13,28,16.40
2010,05,08,13,29,16.40
2010,05,08,13,30,16.50
2010,05,08,13,31,16.60
2010,05,08,13,32,16.60
2010,05,08,13,33,16.50
2010,05,08,13,34,16.50
2010,05,08,13,35,16.50
2010,05,08,13,36,16.60
2010,05,08,13,37,16.70
2010,05,08,13,38,16.80
2010,05,08,13,39,16.70
2010,05,08,13,40,16.60
2010,05,08,13,41,16.60
2010,05,08,13,42,16.50
2010,05,08,13,43,16.50
2010,05,08,13,44,16.50
2010,05,08,13,45,16.60
2010,05,08,13,46,16.80
2010,05,08,13,47,16.90
2010,05,08,13,48,17.00
2010,05,08,13,49,17.10
2010,05,08,13,50,17.30
2010,05,08,13,51,17.30
2010,05,08,13,52,17.30
2010,05,08,13,53,17.40
2010,05,08,13,54,17.50
2010,05,08,13,55,17.60
2010,05,08,13,56,17.70
2010,05,08,13,57,17.80
2010,05,08,13,58,17.90
2010,05,08,13,59,18.00
2010,05,08,14,00,18.10
2010,05,08,14,01,18.20
2010,05,08,14,02,18.20
2010,05,08,14,03,18.30
2010,05,08,14,04,18.30
2010,05,08,14,05,18.40
2010,05,08,14,06,18.40
2010,05,08,14,07,18.40
2010,05,08,14,08,18.50
2010,05,08,14,09,18.60
2010,05,08,14,10,18.60
2010,05,08,14,11,18.60
2010,05,08,14,12,18.60
2010,05,08,14,13,18.50
2010,05,08,14,14,18.50
2010,05,08,14,15,18.40
2010,05,08,14,16,18.30
2010,05,08,14,17,18.30
2010,05,08,14,18,18.30
2010,05,08,14,19,18.40
2010,05,08,14,20,18.40
2010,05,08,14,21,18.50
2010,05,08,14,22,18.50
2010,05,08,14,23,18.40
2010,05,08,14,24,18.30
2010,05,08,14,25,18.20
2010,05,08,14,26,18.20
2010,05,08,14,27,18.30
2010,05,08,14,28,18.30
2010,05,08,14,29,18.30
2010,05,08,14,30,18.30
2010,05,08,14,31,18.30
2010,05,08,14,32,18.20
2010,05,08,14,33,18.20
2010,05,08,14,34,18.20
2010,05,08,14,35,18.20
2010,05,08,14,36,18.20
2010,05,08,14,37,18.20
2010,05,08,14,38,18.00
2010,05,08,14,39,17.90
2010,05,08,14,40,17.80
2010,05,08,14,41,17.80
2010,05,08,14,42,17.90
2010,05,08,14,43,17.90
2010,05,08,14,44,17.80
2010,05,08,14,45,17.80
2010,05,08,14,46,17.70
2010,05,08,14,47,17.70
2010,05,08,14,48,17.70
2010,05,08,14,49,17.70
2010,05,08,14,50,17.70
2010,05,08,14,51,17.60
2010,05,08,14,52,17.60
2010,05,08,14,53,17.60
2010,05,08,14,54,17.70
2010,05,08,14,55,17.70
2010,05,08,14,56,17.70
2010,05,08,14,57,17.70
2010,05,08,14,58,17.70
2010,05,08,14,59,17.80
2010,05,08,15,00,17.80
2010,05,08,15,01,17.90
2010,05,08,15,02,17.90
2010,05,08,15,03,17.90
2010,05,08,15,04,17.90
2010,05,08,15,05,17.90
2010,05,08,15,06,17.80
2010,05,08,15,07,17.80
2010,05,08,15,08,17.80
2010,05,08,15,09,17.90
2010,05,08,15,10,17.90
2010,05,08,15,11,17.80
2010,05,08,15,12,17.80
2010,05,08,15,13,17.80
2010,05,08,15,14,17.80
2010,05,08,15,15,17.70
2010,05,08,15,16,17.60
2010,05,08,15,17,17.60
2010,05,08,15,18,17.60
2010,05,08,15,19,17.60
2010,05,08,15,20,17.60
2010,05,08,15,21,17.70
2010,05,08,15,22,17.60
2010,05,08,15,23,17.60
2010,05,08,15,24,17.60
2010,05,08,15,25,17.50
2010,05,08,15,26,17.40
2010,05,08,15,27,17.30
2010,05,08,15,28,17.20
2010,05,08,15,29,17.20
2010,05,08,15,30,17.30
2010,05,08,15,31,17.30
2010,05,08,15,32,17.30
2010,05,08,15,33,17.30
2010,05,08,15,34,17.30
2010,05,08,15,35,17.40
2010,05,08,15,36,17.40
2010,05,08,15,37,17.40
2010,05,08,15,38,17.50
2010,05,08,15,39,17.60
2010,05,08,15,40,17.70
2010,05,08,15,41,17.70
2010,05,08,15,42,17.70
2010,05,08,15,43,17.70
2010,05,08,15,44,17.70
2010,05,08,15,45,17.70
2010,05,08,15,46,17.80
2010,05,08,15,47,17.80
2010,05,08,15,48,17.80
2010,05,08,15,49,17.80
2010,05,08,15,50,17.80
2010,05,08,15,51,17.80
2010,05,08,15,52,17.70
2010,05,08,15,53,17.70
2010,05,08,15,54,17.70
2010,05,08,15,55,17.70
2010,05,08,15,56,17.80
2010,05,08,15,57,17.80
2010,05,08,15,58,17.90
2010,05,08,15,59,17.90
2010,05,08,16,00,17.90
2010,05,08,16,01,17.90
2010,05,08,16,02,17.80
2010,05,08,16,03,17.70
2010,05,08,16,04,17.70
2010,05,08,16,05,17.70
2010,05,08,16,06,17.70
2010,05,08,16,07,17.70
2010,05,08,16,08,17.70
2010,05,08,16,09,17.80
2010,05,08,16,10,17.90
2010,05,08,16,11,18.00
2010,05,08,16,12,18.00
2010,05,08,16,13,18.10
2010,05,08,16,14,18.20
2010,05,08,16,15,18.30
2010,05,08,16,16,18.30
2010,05,08,16,17,18.30
2010,05,08,16,18,18.30
2010,05,08,16,19,18.40
2010,05,08,16,20,18.40
2010,05,08,16,21,18.40
2010,05,08,16,22,18.30
2010,05,08,16,23,18.30
2010,05,08,16,24,18.30
2010,05,08,16,25,18.20
2010,05,08,16,26,18.10
2010,05,08,16,27,18.00
2010,05,08,16,28,17.90
2010,05,08,16,29,17.80
2010,05,08,16,30,17.70
2010,05,08,16,31,17.60
2010,05,08,16,32,17.50
2010,05,08,16,33,17.40
2010,05,08,16,34,17.30
2010,05,08,16,35,17.20
2010,05,08,16,36,17.30
2010,05,08,16,37,17.30
2010,05,08,16,38,17.30
2010,05,08,16,39,17.30
2010,05,08,16,40,17.30
2010,05,08,16,41,17.30
2010,05,08,16,42,17.30
2010,05,08,16,43,17.20
2010,05,08,16,44,17.00
2010,05,08,16,45,16.90
2010,05,08,16,46,16.80
2010,05,08,16,47,16.70
2010,05,08,16,48,16.60
2010,05,08,16,49,16.60
2010,05,08,16,50,16.60
2010,05,08,16,51,16.60
2010,05,08,16,52,16.60
2010,05,08,16,53,16.60
2010,05,08,16,54,16.60
2010,05,08,16,55,16.60
2010,05,08,16,56,16.70
2010,05,08,16,57,16.70
2010,05,08,16,58,16.80
2010,05,08,16,59,16.70
2010,05,08,17,00,16.70
2010,05,08,17,01,16.60
2010,05,08,17,02,16.50
2010,05,08,17,03,16.40
2010,05,08,17,04,16.30
2010,05,08,17,05,16.30
2010,05,08,17,06,16.20
2010,05,08,17,07,16.10
2010,05,08,17,08,16.10
2010,05,08,17,09,16.10
2010,05,08,17,10,16.10
2010,05,08,17,11,16.10
2010,05,08,17,12,16.20
2010,05,08,17,13,16.30
2010,05,08,17,14,16.30
2010,05,08,17,15,16.40
2010,05,08,17,16,16.50
2010,05,08,17,17,16.60
2010,05,08,17,18,16.70
2010,05,08,17,19,16.80
2010,05,08,17,20,16.90
2010,05,08,17,21,17.00
2010,05,08,17,22,17.10
2010,05,08,17,23,17.20
2010,05,08,17,24,17.20
2010,05,08,17,25,17.20
2010,05,08,17,26,17.20
2010,05,08,17,27,17.20
2010,05,08,17,28,17.20
2010,05,08,17,29,17.20
2010,05,08,17,30,17.20
2010,05,08,17,31,17.30
2010,05,08,17,32,17.30
2010,05,08,17,33,17.30
2010,05,08,17,34,17.30
2010,05,08,17,35,17.30
2010,05,08,17,36,17.30
2010,05,08,17,37,17.30
2010,05,08,17,38,17.30
2010,05,08,17,39,17.30
2010,05,08,17,40,17.30
2010,05,08,17,41,17.40
2010,05,08,17,42,17.40
2010,05,08,17,43,17.40
2010,05,08,17,44,17.40